Location: Unspecified
(0.0000°N, 0.0000°E)
Time: 22:38:01
(UTC+00:00)

MetOp-A - Visible Passes

Search period start: 27 October 2021 00:00
Search period end: 06 November 2021 00:00
Orbit: 820 x 820 km, 98.5° (Epoch: 27 October)

Date Brightness Start Highest point End Pass type
(mag) Time Alt. Az. Time Alt. Az. Time Alt. Az.
27 Oct 6.8 20:29:52 10° SSW 20:30:02 11° SSW 20:30:02 11° SSW visible
28 Oct 6.5 20:08:36 10° S 20:09:13 13° S 20:09:13 13° S visible
29 Oct 6.3 19:47:44 10° SSE 19:48:23 14° SSE 19:48:23 14° SSE visible
30 Oct 6.3 19:27:14 10° SSE 19:27:32 12° SSE 19:27:32 12° SSE visible
31 Oct 7.0 20:48:01 10° SW 20:48:04 10° SW 20:48:04 10° SW visible
01 Nov 6.6 20:26:13 10° SSW 20:27:14 15° SSW 20:27:14 15° SSW visible
02 Nov 6.2 20:05:01 10° S 20:06:23 18° S 20:06:23 18° S visible
03 Nov 6.0 19:44:12 10° SSE 19:45:33 18° SSE 19:45:33 18° SSE visible
04 Nov 6.1 19:23:45 10° SSE 19:24:42 15° SSE 19:24:42 15° SSE visible
05 Nov 6.3 19:03:45 10° SE 19:03:52 10° SE 19:03:52 10° SE visible
05 Nov 6.8 20:44:15 10° SSW 20:45:14 14° SW 20:45:14 14° SW visible
